Location: Unspecified
(29.9680°N, 0.0000°E)
Time: 08:31:28
(UTC+00:00)

A-11 Canister half - Pass Details

Date: 26 June 2019
Orbit: 1526 x 1683 km, 47.3° (Epoch: 16 July)

Event Time Altitude Azimuth Distance (km) Brightness Sun altitude
Rises 05:25:27 0° 281° (WNW) 4,746 11.1 4.0°
Reaches altitude 10° 05:29:11 10° 293° (WNW) 3,740 10.7 4.7°
Maximum altitude 05:37:00 28° 350° (N) 2,559 10.4 6.2°
Drops below altitude 10° 05:44:44 10° 46° (NE) 3,693 12.6 7.8°
Sets 05:48:25 0° 58° (ENE) 4,676 13.7 8.5°
